Martha's Vineyard, MA

2:37 AM EDT on May 30, 2017 (GMT -0400)
Martha's Vineyard

Weather History for KMVY - March, 2013

Change the Weather History Date:

Tuesday, March 19, 2013

  Actual Average Record
Temperature  
Mean Temperature 39 °F -  
Max Temperature 46 °F 43 °F 73 °F (2012)
Min Temperature 33 °F 28 °F 7 °F (1967)
Degree Days  
Heating Degree Days 26    
Moisture  
Dew Point 38 °F    
Average Humidity 94    
Maximum Humidity 100    
Minimum Humidity 70    
Precipitation  
Precipitation 0.63 in - - ()
Sea Level Pressure  
Sea Level Pressure 29.70 in    
Wind  
Wind Speed 16 mph (East)    
Max Wind Speed 24 mph    
Max Gust Speed 34 mph    
Visibility 5 miles    
Events Fog , Rain , Snow    
Averages and records for this station are not official NWS values.
T = Trace of Precipitation, MM = Missing Value Source: NWS Daily Summary

Daily Weather History Graph

Daily Weather History Graph

Search for Another Location

Airport or City:

Trip Planner

Search our weather history database for the weather conditions in past years. The results will help you decide how hot, cold, wet, or windy it might be!

Date:

Astronomy

Mar. 19, 2013 Rise Set
Actual Time 6:47 AM EDT 6:53 PM EDT
Civil Twilight 6:19 AM EDT 7:21 PM EDT
Nautical Twilight 5:47 AM EDT 7:53 PM EDT
Astronomical Twilight 5:14 AM EDT 8:26 PM EDT
Moon 11:30 AM EDT (3/19) 1:41 AM EDT (3/19)
Length of Visible Light 13h 01m
Length of Day
12h 06m
Waxing Crescent, 49% of the Moon is Illuminated
Mar 19
Waxing Crescent
Mar 19
First Quarter
Mar 27
Full
Apr 3
Last Quarter
Apr 10
New

Hourly Weather History & Observations

Time (EDT) Temp. Windchill Dew Point Humidity Pressure Visibility Wind Dir Wind Speed Gust Speed Precip Events Conditions
12:53 AM 34.0 °F 25.0 °F 25.0 °F 70% 30.17 in 9.0 mi East 12.7 mph 20.7 mph 0.00 in Snow Light Snow
1:53 AM 35.1 °F 23.8 °F 26.1 °F 70% 30.10 in 6.0 mi ESE 20.7 mph 29.9 mph 0.00 in Snow Light Snow
2:53 AM 34.0 °F 22.4 °F 30.0 °F 85% 30.04 in 10.0 mi East 20.7 mph 32.2 mph 0.01 in Rain Rain
3:13 AM 33.8 °F 22.5 °F 30.2 °F 87% 30.03 in 7.0 mi ESE 19.6 mph 26.5 mph 0.02 in Rain Rain
3:53 AM 34.0 °F 23.4 °F 32.0 °F 92% 30.01 in 4.0 mi ESE 17.3 mph 27.6 mph 0.09 in Rain Rain
4:16 AM 33.8 °F 22.5 °F 32.0 °F 93% 29.99 in 6.0 mi East 19.6 mph 32.2 mph 0.05 in Rain Rain
4:53 AM 35.1 °F 23.0 °F 33.1 °F 92% 29.96 in 5.0 mi East 24.2 mph 31.1 mph 0.11 in Rain Rain
5:53 AM 36.0 °F 25.3 °F 34.0 °F 93% 29.96 in 6.0 mi East 19.6 mph 28.8 mph 0.06 in Rain Light Rain
6:53 AM 36.0 °F 24.7 °F 35.1 °F 97% 29.94 in 4.0 mi East 21.9 mph 28.8 mph 0.05 in Rain Light Rain
7:53 AM 37.0 °F 26.2 °F 36.0 °F 96% 29.90 in 4.0 mi East 21.9 mph 33.4 mph 0.04 in Rain Light Rain
8:53 AM 37.9 °F 26.8 °F 37.0 °F 97% 29.86 in 4.0 mi East 24.2 mph 31.1 mph 0.06 in Rain Light Rain
9:53 AM 39.0 °F 29.0 °F 37.9 °F 96% 29.81 in 2.5 mi East 20.7 mph 32.2 mph 0.05 in Rain Light Rain
10:11 AM 39.2 °F 29.0 °F 37.4 °F 93% 29.79 in 3.0 mi East 21.9 mph 34.5 mph 0.01 in Rain Light Rain
10:46 AM 39.2 °F 29.6 °F 39.2 °F 100% 29.76 in 2.0 mi East 19.6 mph 31.1 mph 0.03 in Rain Rain
10:53 AM 39.9 °F 30.8 °F 39.0 °F 97% 29.76 in 2.5 mi East 18.4 mph 29.9 mph 0.04 in Rain Rain
11:04 AM 39.2 °F 29.3 °F 39.2 °F 100% 29.74 in 3.0 mi East 20.7 mph 31.1 mph 0.02 in Rain Rain
11:32 AM 41.0 °F 32.5 °F 39.2 °F 93% 29.72 in 1.8 mi East 17.3 mph 26.5 mph 0.04 in Rain Rain
11:48 AM 41.0 °F 32.2 °F 39.2 °F 93% 29.71 in 3.0 mi East 18.4 mph 28.8 mph 0.06 in Rain Light Rain
11:53 AM 41.0 °F 32.2 °F 39.9 °F 96% 29.71 in 5.0 mi East 18.4 mph 24.2 mph 0.06 in Rain Light Rain
12:46 PM 42.8 °F 35.8 °F 41.0 °F 93% 29.65 in 4.0 mi East 13.8 mph 29.9 mph 0.03 in Rain Light Rain
12:53 PM 43.0 °F 33.8 °F 42.1 °F 97% 29.64 in 4.0 mi East 23.0 mph 27.6 mph 0.03 in Rain Light Rain
1:53 PM 45.0 °F 38.9 °F 44.1 °F 97% 29.59 in 3.0 mi ESE 12.7 mph - 0.02 in Rain Light Rain
2:29 PM 44.6 °F 38.4 °F 44.6 °F 100% 29.56 in 1.8 mi ESE 12.7 mph 21.9 mph 0.00 in   Overcast
2:53 PM 45.0 °F 39.7 °F 44.1 °F 97% 29.56 in 0.8 mi SE 10.4 mph - 0.00 in   Overcast
3:18 PM 44.6 °F 40.2 °F 44.6 °F 100% 29.55 in 0.2 mi SSE 8.1 mph - 0.00 in Fog , Rain Light Rain
3:53 PM 45.0 °F 40.1 °F 45.0 °F 100% 29.53 in 0.2 mi SW 9.2 mph - 0.00 in Fog Fog
4:05 PM 44.6 °F 40.2 °F 44.6 °F 100% 29.51 in 0.5 mi SW 8.1 mph - N/A Fog Fog
4:16 PM 44.6 °F 39.7 °F 44.6 °F 100% 29.52 in 2.0 mi SW 9.2 mph - N/A   Overcast
4:29 PM 44.6 °F 38.8 °F 44.6 °F 100% 29.52 in 0.8 mi SSW 11.5 mph - N/A   Overcast
4:49 PM 42.8 °F 38.0 °F 42.8 °F 100% 29.51 in 0.2 mi SW 8.1 mph - N/A Fog Fog
4:53 PM 43.0 °F 37.7 °F 43.0 °F 100% 29.51 in 0.2 mi SSW 9.2 mph - N/A Fog Fog
5:28 PM 44.6 °F 43.1 °F 44.6 °F 100% 29.48 in 0.5 mi NW 3.5 mph - N/A Fog Fog
5:43 PM 44.6 °F 42.2 °F 44.6 °F 100% 29.48 in 1.0 mi NNW 4.6 mph - N/A   Overcast
5:50 PM 44.6 °F 40.2 °F 42.8 °F 93% 29.49 in 4.0 mi NW 8.1 mph - N/A   Overcast
5:53 PM 44.1 °F 38.6 °F 43.0 °F 96% 29.50 in 1.8 mi WNW 10.4 mph - N/A   Overcast
6:13 PM 41.0 °F 34.7 °F 41.0 °F 100% 29.52 in 3.0 mi WNW 10.4 mph - N/A   Overcast
6:53 PM 39.9 °F 32.9 °F 39.0 °F 97% 29.55 in 10.0 mi WNW 11.5 mph 19.6 mph N/A   Overcast
7:53 PM 37.9 °F 29.6 °F 37.0 °F 97% 29.57 in 10.0 mi WNW 13.8 mph - 0.01 in   Overcast
8:48 PM 37.4 °F 28.9 °F 35.6 °F 93% 29.61 in 10.0 mi WNW 13.8 mph 23.0 mph N/A   Overcast
8:53 PM 37.0 °F 28.9 °F 35.1 °F 93% 29.61 in 10.0 mi West 12.7 mph 24.2 mph N/A   Overcast
9:53 PM 36.0 °F 26.7 °F 34.0 °F 93% 29.62 in 10.0 mi WNW 15.0 mph 28.8 mph N/A   Overcast
10:03 PM 35.6 °F 24.2 °F 33.8 °F 93% 29.62 in 10.0 mi WNW 21.9 mph 32.2 mph N/A   Overcast
10:53 PM 34.0 °F 23.0 °F 32.0 °F 92% 29.63 in 10.0 mi NW 18.4 mph 27.6 mph N/A   Mostly Cloudy
11:20 PM 33.8 °F 23.9 °F 30.2 °F 87% 29.64 in 10.0 mi NW 15.0 mph 24.2 mph N/A   Scattered Clouds
11:53 PM 34.0 °F 25.0 °F 30.9 °F 89% 29.66 in 10.0 mi NW 12.7 mph 19.6 mph N/A   Partly Cloudy